Temp
89 90 90 89 89 89 87 87 85 84 84 84 83 84 82 81 80 78 77 77 76 76 77 76 76 76 74 74 77 74 73 74 72 77 78 75 72 71 74 74 74 74 79
85 85 85 84 83 84 84 86 86 86 87 84 83 82 82 82 82 81 80 80 77 75 76 76 75 76 76 76 76 74 73 74 72 71 73 75 75 76 74 71 72 75 75
84 84 83 83 81 80 80 80 81 79 80 81 80 79 80 81 81 81 81 80 80 79 78 77 76 75 75 78 76 76 75 74 73 71 71 72 74 76 72 72 71 70 75
80 79 79 78 78 79 78 78 78 78 78 78 77 76 78 79 80 81 81 80 80 81 81 81 79 77 75 75 75 75 74 73 74 72 71 73 72 73 73 71 69 69 72
77 77 76 74 74 74 73 73 74 75 76 76 76 77 76 76 84 81 80 79 78 78 79 80 80 79 76 74 74 73 73 72 72 71 71 70 71 69 71 73 71 72 72
75 73 72 71 71 71 71 71 71 72 73 72 73 74 75 80 75 72 73 78 78 77 76 78 79 75 76 72 69 67 70 71 71 67 64 62 66 70 71 71 72 72 70
72 70 70 70 69 69 69 69 68 68 69 69 70 71 72 74 71 71 72 75 74 76 76 77 79 84 75 77 70 67 67 67 71 67 64 64 64 70 73 72 72 71 72
69 69 69 68 67 67 67 66 66 66 66 66 66 67 69 72 68 68 69 73 73 74 76 76 75 77 76 75 75 74 73 71 69 69 68 71 72 74 74 74 74 73 72
68 67 66 64 63 63 64 64 66 65 65 64 65 64 64 66 66 66 67 71 72 72 74 75 76 76 74 71 74 73 74 75 71 68 69 70 71 71 71 73 73 72 71
64 64 63 64 64 64 64 63 64 64 63 64 64 64 64 64 66 65 66 70 70 72 72 72 72 75 70 65 73 72 71 74 75 76 72 69 68 69 68 75 75 71 71
64 64 64 63 62 63 63 63 62 62 61 61 61 63 64 65 66 63 62 67 69 70 70 73 73 64 61 59 61 72 71 71 72 73 75 74 74 76 76 74 75 75 72
63 63 63 63 65 65 62 62 61 60 58 58 59 60 64 66 62 62 59 59 62 66 69 73 71 60 59 61 59 63 63 65 70 71 71 71 73 75 78 78 77 76 78
64 66 66 65 65 63 62 61 61 60 58 57 56 56 59 64 65 58 58 59 62 64 67 65 60 58 57 59 60 61 62 67 68 70 71 72 73 76 76 76 75 75 75
64 66 67 66 64 66 65 63 61 59 57 56 54 53 54 55 57 57 57 58 62 65 63 62 64 63 61 63 65 65 67 71 72 71 73 74 75 75 75 77 77 72 71
67 68 67 66 66 66 65 63 62 61 55 53 53 53 51 51 54 49 47 50 53 55 51 64 66 68 69 70 70 68 70 71 68 70 68 71 74 74 74 76 76 76 68
67 67 66 66 64 63 61 61 58 54 51 48 48 48 54 51 48 45 44 45 45 46 54 62 65 67 67 68 65 66 67 67 67 67 67 68 70 73 73 75 76 75 70
67 68 68 66 66 64 63 62 59 61 55 50 48 49 47 46 45 44 44 45 49 50 57 57 60 63 63 63 63 64 64 67 67 65 66 66 65 66 66 69 72 69 66
68 58 69 69 69 69 66 66 66 63 64 63 57 51 48 47 46 45 46 51 51 52 51 51 51 53 54 57 62 62 64 65 65 65 65 64 64 64 66 66 67 66 66
71 71 70 70 71 67 69 68 69 67 66 66 65 58 55 49 48 47 48 51 49 48 49 50 51 51 52 54 55 56 58 62 62 61 62 64 64 65 65 65 67 59 62
71 65 66 70 70 69 69 68 68 67 66 67 67 65 62 59 57 53 51 49 48 48 48 48 50 51 51 52 53 54 55 56 57 57 59 60 62 63 64 67 67 66 66
73 72 68 72 70 69 69 68 68 68 67 67 68 62 48 60 58 55 52 50 48 48 48 48 49 50 51 51 53 51 52 51 50 51 52 55 58 60 62 64 66 67 66
71 74 73 72 71 69 69 69 69 68 67 67 68 66 48 56 66 60 57 55 53 51 49 48 48 49 50 50 52 48 48 47 46 47 48 51 54 56 59 62 64 65 66
73 72 74 73 72 67 70 70 70 69 68 68 68 67 67 66 65 65 64 64 60 57 54 51 49 49 50 51 51 49 46 44 44 44 46 48 51 54 55 57 62 62 64
73 70 74 73 72 71 71 70 70 63 67 68 68 67 66 66 66 65 66 66 66 65 62 58 53 51 51 51 51 48 45 41 40 42 43 45 50 52 56 57 62 65 62
75 70 73 68 71 70 65 61 69 69 69 69 68 67 67 67 66 65 66 66 65 64 65 65 63 60 58 57 55 51 38 35 38 36 39 42 47 52 57 62 62 62 63
71 66 69 60 59 56 60 66 56 65 67 67 68 67 67 66 66 65 65 64 64 65 65 65 65 64 63 60 54 40 34 34 37 33 35 42 49 54 58 59 60 61 61
MSLP
1009.75 1009.94 1009.95 1009.99 1009.87 1009.89 1009.90 1009.74 1009.70 1009.66 1009.63 1009.55 1009.52 1009.39 1009.48 1009.47 1009.55 1009.66 1009.64 1009.40 1009.64 1009.71 1009.62 1009.88 1010.09 1010.16 1010.27 1010.41 1010.50 1010.71 1010.75 1010.49 1010.61 1010.15 1010.19 1010.41 1010.58 1010.35 1009.73 1010.16 1010.80 1011.19 1011.11
1010.76 1010.60 1010.45 1010.45 1010.36 1010.35 1010.07 1009.80 1009.58 1009.22 1009.19 1009.29 1009.27 1009.20 1009.02 1009.00 1009.04 1009.05 1009.11 1008.88 1009.04 1009.17 1009.24 1009.48 1009.28 1009.50 1009.75 1009.85 1010.00 1010.10 1010.27 1010.25 1010.52 1010.53 1010.36 1010.48 1010.58 1010.52 1010.39 1010.64 1010.58 1012.26 1011.15
1011.70 1011.49 1011.30 1011.11 1011.03 1011.04 1010.88 1010.75 1010.41 1010.07 1009.84 1009.46 1009.30 1009.23 1009.11 1008.91 1008.71 1008.57 1008.62 1008.67 1008.59 1008.53 1008.54 1008.76 1008.94 1009.09 1009.29 1009.22 1009.20 1009.42 1009.50 1009.58 1010.02 1010.30 1010.17 1010.22 1010.33 1010.19 1010.60 1010.55 1010.39 1011.00 1011.48
1012.04 1012.45 1012.20 1011.98 1011.97 1011.85 1011.78 1011.38 1010.98 1010.61 1010.23 1009.78 1009.60 1009.24 1009.09 1009.03 1008.68 1008.37 1007.99 1008.01 1008.06 1007.98 1007.83 1007.84 1008.07 1008.35 1008.72 1008.81 1009.05 1008.87 1008.97 1009.05 1009.39 1009.71 1009.86 1010.00 1010.24 1010.45 1010.70 1010.77 1010.66 1009.95 1009.48
1012.77 1012.95 1012.81 1012.91 1012.81 1012.64 1012.60 1012.30 1011.76 1011.20 1010.69 1010.28 1009.83 1009.45 1009.20 1008.87 1008.40 1007.71 1007.56 1007.47 1007.62 1007.71 1007.52 1007.41 1007.57 1007.76 1007.85 1008.05 1008.33 1008.31 1008.35 1008.39 1008.87 1009.43 1009.76 1009.97 1010.04 1010.38 1010.17 1009.94 1010.16 1009.77 1009.45
1013.43 1013.64 1013.63 1013.52 1013.47 1013.28 1012.99 1012.57 1012.14 1011.67 1011.15 1010.71 1010.22 1009.78 1009.31 1008.84 1008.40 1008.16 1008.22 1007.64 1007.29 1007.29 1007.10 1007.04 1007.14 1007.36 1007.40 1007.40 1007.60 1008.00 1008.14 1008.28 1008.56 1009.27 1009.55 1009.69 1008.82 1009.51 1009.73 1009.32 1009.69 1009.93 1009.85
1013.96 1014.13 1014.19 1014.13 1013.95 1013.67 1013.32 1012.90 1012.44 1011.99 1011.44 1010.92 1010.36 1009.96 1009.48 1008.93 1008.44 1008.14 1007.77 1007.68 1007.34 1006.99 1006.78 1006.65 1006.66 1006.61 1006.66 1006.98 1007.06 1007.40 1007.47 1007.53 1007.50 1008.25 1008.80 1008.07 1007.87 1008.33 1008.74 1008.87 1008.70 1008.69 1008.44
1014.59 1014.72 1014.69 1014.53 1014.23 1013.91 1013.58 1013.16 1012.88 1012.54 1012.19 1011.82 1011.25 1010.56 1009.82 1009.07 1008.63 1008.16 1007.63 1007.37 1007.02 1006.69 1006.55 1006.36 1006.32 1006.27 1006.16 1006.48 1006.74 1006.94 1006.91 1007.26 1007.60 1007.77 1007.91 1007.44 1007.54 1007.49 1007.74 1007.87 1007.97 1007.91 1007.69
1015.22 1015.26 1015.21 1015.08 1014.65 1014.22 1013.74 1013.30 1012.96 1012.63 1012.26 1011.81 1011.29 1010.80 1010.36 1009.45 1008.81 1008.36 1007.84 1007.18 1006.68 1006.47 1006.28 1006.02 1005.81 1005.54 1005.41 1005.54 1005.99 1006.23 1006.39 1006.40 1006.69 1006.81 1006.82 1006.74 1006.72 1006.78 1006.96 1007.08 1007.32 1007.47 1007.09
1015.88 1015.83 1015.59 1015.18 1014.74 1014.35 1014.02 1013.62 1013.26 1012.91 1012.45 1011.97 1011.25 1010.70 1010.07 1009.36 1008.54 1007.93 1007.39 1006.91 1006.52 1006.32 1006.07 1005.59 1005.34 1004.99 1004.88 1005.28 1005.24 1005.48 1005.74 1005.40 1005.55 1005.48 1006.09 1006.17 1006.16 1006.28 1006.31 1006.18 1006.27 1006.41 1006.47
1016.09 1015.75 1015.42 1015.26 1014.86 1014.38 1014.05 1013.71 1013.39 1013.12 1012.81 1012.22 1011.59 1010.80 1009.88 1008.96 1008.33 1007.70 1007.24 1007.02 1006.56 1006.17 1005.85 1005.43 1005.06 1005.15 1005.29 1005.22 1005.90 1005.04 1005.39 1005.13 1005.37 1005.21 1005.15 1005.27 1005.34 1005.27 1005.34 1005.32 1005.27 1005.39 1005.47
1016.06 1015.74 1015.41 1015.04 1014.63 1014.37 1014.18 1013.81 1013.52 1013.26 1012.88 1012.35 1011.71 1010.86 1009.98 1009.09 1008.62 1007.88 1007.56 1007.68 1007.08 1006.62 1005.75 1005.18 1004.97 1005.25 1005.11 1005.01 1005.31 1005.38 1004.64 1004.84 1005.02 1005.14 1004.78 1004.57 1004.50 1004.38 1004.02 1003.89 1003.95 1004.18 1004.23
1015.73 1015.14 1014.84 1014.70 1014.61 1014.33 1014.08 1013.73 1013.45 1013.18 1013.05 1012.70 1012.11 1011.37 1010.70 1009.79 1009.22 1008.91 1008.72 1008.19 1007.46 1006.82 1006.01 1005.54 1004.96 1004.78 1004.73 1004.84 1004.80 1004.31 1004.18 1004.74 1004.36 1004.47 1004.33 1003.91 1003.66 1003.38 1003.22 1003.09 1002.98 1003.14 1003.42
1015.44 1014.85 1014.61 1014.43 1014.21 1014.04 1014.01 1013.93 1013.76 1013.61 1013.48 1013.15 1012.80 1012.39 1011.74 1011.02 1010.34 1009.90 1009.41 1008.75 1007.70 1006.65 1005.98 1005.42 1004.72 1004.23 1003.98 1004.10 1003.93 1003.66 1003.73 1003.50 1003.44 1003.27 1003.23 1003.08 1002.77 1002.74 1002.59 1002.29 1002.25 1002.38 1002.79
1015.03 1014.65 1014.64 1014.59 1014.37 1014.00 1013.96 1014.04 1014.01 1013.90 1013.95 1013.80 1013.57 1013.09 1012.30 1011.65 1011.21 1010.90 1010.30 1009.26 1008.31 1007.48 1007.10 1005.49 1004.48 1003.82 1003.29 1002.89 1002.80 1002.68 1002.37 1002.31 1002.49 1002.46 1002.54 1002.51 1001.96 1001.78 1001.59 1001.45 1001.37 1001.33 1001.84
1014.66 1014.66 1014.54 1014.43 1014.54 1014.51 1014.37 1014.17 1013.93 1013.63 1013.48 1013.53 1013.23 1013.16 1012.85 1012.27 1011.47 1010.69 1009.71 1008.68 1007.72 1007.11 1006.64 1005.47 1004.40 1003.68 1003.21 1002.76 1002.53 1002.26 1002.06 1001.83 1001.74 1001.75 1001.77 1001.71 1001.48 1001.12 1001.01 1000.74 1000.65 1000.34 1000.73
1014.49 1014.27 1014.10 1013.85 1013.86 1013.93 1013.92 1013.64 1013.43 1013.02 1012.70 1012.84 1012.87 1012.65 1012.54 1012.04 1011.28 1010.49 1009.47 1008.39 1007.72 1006.96 1006.75 1006.01 1005.07 1004.04 1003.80 1003.20 1002.60 1002.20 1001.91 1001.59 1001.43 1001.44 1001.25 1001.18 1001.17 1000.96 1000.66 1000.33 1000.03 999.99 999.96
1014.14 1013.91 1013.83 1013.55 1013.06 1012.93 1012.92 1012.67 1012.43 1012.06 1011.58 1011.75 1012.08 1012.11 1011.95 1011.64 1011.20 1010.65 1009.75 1008.66 1008.06 1007.69 1007.61 1007.12 1006.50 1005.76 1004.93 1003.95 1002.63 1002.29 1001.94 1001.87 1001.69 1001.51 1001.14 1000.87 1000.93 1000.73 1000.51 1000.30 1000.01 999.62 999.45
1013.81 1013.73 1013.65 1013.25 1012.81 1012.66 1012.42 1012.18 1011.58 1011.27 1011.08 1010.76 1010.84 1011.19 1011.42 1011.32 1011.03 1010.79 1010.25 1009.74 1009.29 1008.81 1008.25 1007.52 1006.93 1006.32 1005.48 1004.91 1004.08 1003.41 1002.81 1001.96 1001.66 1001.50 1001.17 1000.67 1000.59 1000.08 999.76 999.61 999.49 999.22 999.15
1013.55 1013.61 1013.36 1013.00 1012.75 1012.56 1012.43 1012.05 1011.49 1011.09 1010.84 1010.54 1010.09 1010.12 1010.54 1010.64 1010.52 1010.51 1010.55 1010.32 1009.92 1009.32 1008.75 1008.13 1007.33 1006.85 1006.30 1005.33 1004.61 1003.98 1003.47 1002.90 1002.38 1002.19 1001.60 1000.72 1000.51 999.50 999.55 999.05 998.74 998.74 998.41
1013.37 1013.18 1013.03 1012.82 1012.71 1012.67 1012.26 1011.89 1011.47 1011.02 1010.81 1010.48 1010.06 1010.11 1010.41 1010.54 1010.34 1010.32 1010.37 1010.29 1010.11 1009.72 1009.24 1008.41 1008.01 1007.34 1006.81 1005.87 1005.28 1004.86 1004.23 1003.90 1003.33 1002.84 1002.42 1001.63 1000.98 1000.28 999.75 999.19 998.81 997.98 997.57
1013.71 1012.84 1012.60 1012.43 1012.36 1012.23 1011.97 1011.76 1011.29 1011.10 1010.86 1010.48 1010.16 1010.09 1010.34 1010.26 1009.20 1009.36 1009.51 1009.64 1009.72 1009.51 1009.12 1008.77 1008.33 1007.75 1007.18 1006.76 1006.00 1005.81 1005.14 1004.71 1004.15 1003.33 1002.56 1001.95 1001.30 1000.74 999.91 999.03 998.27 997.94 997.39
1013.40 1012.81 1012.19 1012.03 1011.94 1011.87 1011.51 1011.33 1010.97 1010.81 1010.58 1010.39 1010.16 1010.00 1009.77 1009.67 1009.12 1008.74 1008.36 1008.32 1008.65 1008.71 1008.47 1008.29 1008.05 1007.78 1007.19 1006.81 1006.40 1006.02 1005.73 1005.11 1004.72 1004.12 1003.13 1002.41 1001.65 1000.84 1000.04 999.53 998.56 997.95 997.39
1012.84 1012.49 1012.14 1011.86 1011.87 1011.74 1011.36 1011.13 1010.80 1010.57 1010.35 1010.19 1009.91 1009.78 1009.73 1009.50 1009.09 1008.73 1008.31 1008.16 1007.91 1007.48 1007.48 1007.23 1007.18 1007.04 1006.82 1006.63 1006.23 1005.91 1005.62 1005.21 1004.75 1004.07 1003.51 1002.76 1001.72 1000.86 999.91 999.02 998.87 998.09 997.68
1012.43 1012.45 1012.15 1012.06 1011.83 1011.43 1011.49 1011.57 1011.07 1010.72 1010.32 1009.97 1009.71 1009.60 1009.53 1009.16 1008.92 1008.78 1008.32 1008.09 1007.81 1007.37 1006.81 1006.44 1006.24 1006.07 1005.83 1006.02 1005.88 1005.53 1005.43 1005.10 1004.57 1004.15 1003.60 1003.08 1002.04 1001.08 1000.37 999.65 998.90 998.27 997.76
1012.71 1012.99 1012.32 1012.23 1012.05 1011.61 1012.25 1011.46 1010.92 1011.24 1010.56 1010.09 1009.72 1009.53 1009.26 1008.89 1008.80 1008.68 1008.40 1008.17 1007.75 1007.22 1006.80 1006.36 1005.83 1005.51 1005.25 1005.23 1005.42 1005.32 1005.08 1004.78 1004.24 1003.90 1003.59 1002.84 1001.83 1000.68 999.93 999.31 998.80 998.36 997.92
Wind_Speed
7 3 2 2 5 3 5 4 5 6 6 5 6 5 6 7 7 6 8 11 10 10 10 10 10 10 6 5 6 6 9 4 6 7 2 2 5 12 5 4 7 11 7
11 10 11 9 10 11 10 9 7 5 3 4 6 7 6 6 6 6 7 7 8 8 10 10 11 7 9 8 7 8 8 6 5 9 3 1 4 4 4 2 6 9 15
9 11 11 10 11 12 13 12 12 10 10 10 9 7 7 7 6 6 7 6 7 7 7 8 9 8 9 8 7 7 8 8 6 5 5 2 3 2 4 2 3 10 11
9 9 9 9 10 10 11 12 13 13 12 8 10 11 9 9 9 8 8 8 7 7 6 5 6 7 9 10 9 10 10 8 7 6 4 3 3 2 2 4 4 11 7
7 8 10 12 12 12 12 12 13 13 12 12 12 10 11 11 11 10 9 9 6 7 8 6 7 6 9 11 8 11 11 11 7 4 1 1 3 2 6 4 4 5 6
9 9 10 10 10 10 11 12 11 12 12 13 12 12 12 10 15 16 10 8 7 7 6 6 6 8 9 11 9 11 11 11 10 3 3 5 4 6 5 6 6 6 7
8 8 8 9 10 10 10 10 11 13 14 14 14 14 14 14 12 14 15 10 10 9 7 6 6 9 6 6 7 7 9 10 12 10 8 6 5 10 10 7 8 6 7
7 8 8 9 10 11 12 11 11 11 11 13 14 15 15 13 16 18 14 9 9 11 10 9 9 8 7 6 5 6 7 7 8 9 9 9 11 9 8 8 7 6 4
9 9 10 9 9 10 10 9 10 10 10 11 10 13 16 16 20 20 16 10 9 10 10 12 12 9 10 13 10 8 6 8 12 19 20 18 18 14 7 5 7 6 5
11 9 8 8 9 10 10 10 9 10 11 11 13 11 15 15 20 17 16 8 9 8 11 12 16 17 12 13 11 8 8 10 7 5 10 12 11 10 11 8 6 6 5
8 8 9 9 8 9 9 8 9 9 11 11 12 12 15 11 16 11 10 7 7 8 8 9 5 10 8 3 15 6 8 7 9 6 4 5 7 8 9 10 11 9 9
9 9 9 9 7 8 9 9 8 7 9 10 11 11 11 11 13 9 14 8 11 7 9 7 5 6 6 6 4 14 11 10 5 5 4 5 6 7 9 11 12 12 12
9 7 6 7 8 8 9 9 9 9 7 9 9 9 10 12 14 21 20 22 16 10 7 9 12 8 10 7 14 14 11 8 8 7 8 8 7 7 9 10 8 16 14
8 9 8 8 7 7 8 8 8 8 9 8 8 9 8 9 10 11 11 12 15 11 7 8 11 14 13 13 10 9 8 9 11 10 11 10 8 8 10 9 10 7 9
7 6 7 8 10 9 8 6 7 7 5 4 6 8 8 9 10 15 13 9 9 11 14 9 8 8 9 8 8 8 7 7 9 11 11 11 10 9 10 10 10 9 11
7 7 6 6 6 7 7 7 7 4 5 3 5 2 7 10 14 15 16 19 16 11 5 9 8 8 9 10 8 7 7 9 9 8 8 11 12 11 11 10 10 10 9
7 3 5 4 4 5 6 6 7 7 2 4 1 4 6 13 15 14 17 17 14 9 7 9 10 9 9 10 9 8 9 7 9 8 8 8 7 10 8 7 7 4 5
10 3 7 7 6 4 3 4 5 6 5 5 6 7 8 13 14 14 17 11 10 9 8 8 9 9 9 13 7 7 6 6 6 6 7 6 8 9 11 11 8 6 4
6 5 6 7 6 6 7 8 8 7 9 3 2 3 5 8 8 9 13 9 8 8 8 9 9 9 8 9 9 9 11 8 4 5 5 6 7 7 11 7 10 9 8
7 3 5 7 7 7 8 8 8 7 7 9 8 3 3 5 8 8 7 8 8 7 7 8 9 9 8 8 8 7 7 8 9 8 7 7 6 7 8 9 10 9 7
6 5 5 5 6 7 7 8 8 8 9 9 9 4 5 2 3 5 5 5 5 6 8 8 8 9 9 8 7 8 8 8 8 7 7 6 6 7 7 8 10 8 6
10 6 5 4 4 6 5 7 7 7 8 9 9 8 8 5 4 2 1 3 4 4 3 4 6 7 7 9 7 8 7 8 9 8 8 8 7 7 8 9 8 7 6
9 11 6 6 5 6 5 7 6 6 7 8 8 8 8 9 8 8 7 3 1 4 4 4 3 5 5 5 5 6 7 8 8 8 8 8 7 7 7 8 10 8 8
9 6 9 6 6 7 7 7 6 7 6 8 7 7 8 8 9 9 8 8 9 6 2 4 5 7 5 5 3 3 5 7 6 7 10 8 8 9 8 8 10 9 7
9 7 9 8 9 7 5 6 10 8 7 7 7 7 8 7 7 8 8 7 8 10 9 5 2 5 7 3 4 7 6 10 8 9 7 10 10 13 9 9 9 9 11
6 6 10 3 4 2 11 6 2 10 7 7 6 6 7 7 7 8 8 10 10 10 11 9 9 10 9 3 7 7 10 13 12 11 8 7 8 7 9 11 15 11 12
Wind_Direction
53 29 280 287 271 231 256 261 236 249 247 267 284 258 274 283 279 280 259 266 241 251 251 236 231 229 229 236 247 254 275 187 234 265 270 156 153 258 336 5 322 333 262
6 2 13 7 5 357 344 340 310 272 312 292 269 263 236 236 246 254 264 274 282 271 254 258 256 236 235 232 229 233 245 260 218 254 259 138 241 236 162 1 290 291 306
359 357 355 354 359 348 347 345 340 343 341 336 345 332 321 291 264 241 237 256 253 245 247 258 263 265 252 239 225 227 227 238 233 237 236 197 193 266 77 306 268 298 269
15 348 334 4 350 342 335 334 341 342 337 324 316 310 313 304 291 268 246 223 242 257 257 268 239 238 252 255 251 249 241 231 214 238 247 249 195 203 168 196 231 243 261
358 335 10 12 2 356 355 345 344 337 333 331 327 318 310 297 285 270 257 254 227 259 265 242 262 267 242 239 248 258 252 242 224 226 268 324 286 246 241 237 214 248 243
13 14 8 360 344 339 335 332 331 329 332 333 326 319 312 303 308 315 304 303 264 249 253 257 250 257 265 245 230 244 251 255 246 204 207 227 246 252 238 234 237 228 256
6 16 350 350 337 326 322 326 335 336 333 329 322 320 316 309 294 298 308 301 295 278 270 257 257 269 233 256 237 211 244 251 217 176 205 206 222 253 252 242 239 239 225
10 356 348 337 337 346 344 341 340 332 334 326 319 317 316 310 321 310 302 299 299 288 277 278 256 248 238 226 242 218 216 211 207 198 233 217 234 238 233 233 235 227 259
359 352 350 349 330 319 313 329 335 332 322 316 310 316 315 306 307 302 300 296 298 300 278 265 255 248 240 212 207 207 221 225 204 213 223 232 235 243 217 216 238 218 254
354 343 319 318 329 336 338 335 333 331 326 326 319 308 298 299 300 296 295 293 295 289 289 281 261 242 237 202 203 211 218 229 224 216 219 247 241 245 227 206 222 241 259
339 339 349 338 321 329 327 330 333 336 326 323 319 317 311 293 316 321 330 333 308 302 285 281 274 68 341 306 285 207 229 254 244 234 224 213 226 227 232 220 220 220 235
357 355 349 341 336 349 340 330 336 336 329 326 324 321 322 320 310 353 8 333 341 320 288 280 296 10 332 309 272 262 242 241 226 254 240 238 247 251 236 223 220 220 226
338 335 5 358 355 1 349 352 350 348 350 345 341 341 333 335 338 10 350 334 326 320 315 313 301 243 233 248 248 244 244 245 226 229 238 235 233 240 251 265 263 218 220
349 338 10 353 339 25 5 8 1 9 353 348 350 344 337 341 340 346 336 324 313 309 344 322 301 294 276 248 252 232 221 229 225 221 235 240 239 242 247 250 248 230 210
333 9 9 3 347 8 9 10 10 16 13 8 356 338 334 334 331 316 306 306 305 297 318 291 285 277 277 265 265 269 270 237 230 238 240 250 248 242 239 243 247 244 220
343 20 349 3 5 0 348 348 350 345 350 162 226 261 343 306 307 311 309 306 304 292 272 290 288 291 291 292 289 263 270 274 270 257 255 240 246 243 243 245 250 229 238
317 348 336 346 13 347 351 345 337 315 73 193 173 15 345 333 330 326 333 332 12 359 349 351 340 319 325 296 281 282 276 283 294 285 275 278 283 278 255 253 259 261 258
302 149 355 331 322 339 308 314 319 303 325 24 37 6 5 350 349 342 346 350 7 14 4 351 344 339 336 333 326 312 306 298 316 332 307 285 278 284 263 252 251 249 256
353 21 338 331 339 344 340 340 331 354 341 352 350 346 15 349 355 354 358 13 4 358 352 350 346 341 340 343 342 344 349 314 291 288 284 283 280 255 245 243 260 246 233
342 172 302 336 356 4 341 341 333 340 344 336 336 359 345 345 13 15 7 2 355 356 353 355 345 344 333 344 336 344 344 352 356 356 347 358 343 334 319 263 234 240 232
348 0 351 354 356 6 329 337 332 349 349 338 340 40 129 294 353 18 10 4 352 349 348 359 355 343 341 342 353 1 358 352 344 345 337 323 329 318 322 322 302 254 222
312 346 358 3 11 336 336 348 334 2 342 342 344 1 210 263 347 117 9 359 336 317 310 340 345 341 345 338 352 353 356 349 336 331 331 331 331 318 320 300 311 319 315
301 312 338 344 356 325 355 337 354 352 344 353 348 353 357 342 342 4 351 44 288 290 278 277 281 288 295 315 335 351 345 344 326 314 315 319 314 320 328 317 316 312 319
301 307 328 336 343 326 333 334 356 354 2 350 349 352 1 337 346 358 349 2 352 327 266 242 228 256 266 282 303 345 3 339 320 316 325 311 312 312 312 329 311 317 298
310 314 321 338 311 322 34 320 336 354 354 341 357 2 351 328 351 352 340 355 350 329 343 332 318 267 255 257 352 5 3 347 336 328 319 302 295 300 297 309 319 320 319
336 325 308 94 225 91 288 283 64 293 340 337 2 4 326 347 359 348 357 352 345 332 346 335 346 354 356 104 20 16 9 348 342 329 322 295 295 307 313 333 328 320 314